Weather Roundup
Issued by NWS Chicago, IL

Current Version | Previous Version | Text Only | Print | Product List | Glossary On
Versions: 1 2 3 4 5 6 7 8 9 10 11 12 13 14 15 16 17 18 19 20 21 22 23 24 25 26 27 28 29 30 31 32 33 34 35 36 37 38 39 40 41 42 43 44 45 46 47 48 49 50
000
NZUS59 KLOT 261209
HRRLOT

CHICAGO AREA WEATHER ROUNDUP
NATIONAL WEATHER SERVICE CHICAGO/ROMEOVILLE IL
700 AM CDT MON JUN 26 2017

NOTE: "FAIR" INDICATES FEW OR NO CLOUDS BELOW 12,000 FEET WITH NO
SIGNIFICANT WEATHER AND/OR OBSTRUCTIONS TO VISIBILITY.

* THESE STATIONS ARE NOT UNDER NWS QUALITY CONTROL. THEY ALSO MAY NOT
  REPORT WEATHER SUCH AS PRECIPITATION OR FOG.

ILZ005-006-012>014-019>023-261300-
NORTHEAST ILLINOIS

CITY           SKY/WX    TMP DP  RH WIND       PRES   REMARKS
OHARE          CLOUDY    58  48  69 W9        30.11S
6HR MIN TEMP:  54; 6HR MAX TEMP:  59;

MIDWAY         CLOUDY    59  50  72 W7        30.12S
6HR MIN TEMP:  55; 6HR MAX TEMP:  60;

AURORA         CLOUDY    56  52  86 W5        30.14R
6HR MIN TEMP:  49; 6HR MAX TEMP:  56;

LANSING*       MOSUNNY   56  49  78 W7        30.14S
JOLIET*        CLOUDY    57  51  81 CALM      30.15R
WAUKEGAN       MOSUNNY   56  53  90 SW3       30.10S
6HR MIN TEMP:  53; 6HR MAX TEMP:  56;

DUPAGE AIRPORT CLOUDY    55  51  86 W6        30.12S
6HR MIN TEMP:  50; 6HR MAX TEMP:  56;

WHEELING       PTSUNNY   58  51  78 W8        30.13S
6HR MIN TEMP:  54; 6HR MAX TEMP:  58;

MORRIS*        PTSUNNY   55  50  82 W8        30.14R
LEWIS AIRPORT* CLOUDY    55  49  81 W5        30.14R
NORTHERLY ISL    N/A     59  48  67 W3          N/A
$$

WIZ051-052-058>065-066-070>072-261300-
SOUTHEAST WISCONSIN

CITY           SKY/WX    TMP DP  RH WIND       PRES   REMARKS
MILWAUKEE      MOSUNNY   59  48  67 W8        30.09R
6HR MIN TEMP:  54; 6HR MAX TEMP:  59;

KENOSHA*       SUNNY     56  52  86 W7        30.10S
RACINE*        SUNNY     57  50  77 W7        30.11R
WAUKESHA       MOSUNNY   54  46  76 W6        30.11R
WEST BEND      SUNNY     54  46  76 W9        30.07S
$$

INZ001>003-010>013-019-020-261300-
NORTHWEST INDIANA

CITY           SKY/WX    TMP DP  RH WIND       PRES   REMARKS
GARY*          PTSUNNY   57  50  77 W9        30.13S
MICHIGAN CITY* NOT AVBL
RENSSELAER*    NOT AVBL
VALPARAISO     SUNNY     59  51  75 W9        30.13R
$$

LMZ740>746-261300-
SOUTHERN LAKE MICHIGAN

STATION/POSITION TIME  SKY/WX   TEMP WIND        PRES    VSBY
                                AIR  DIR/SP/G
                 (UTC)          (F)  (DEG/KT/KT) (MB)    (MI)
HARRISON CRIB    1140            60  270/ 10/ 11   N/A
BURNHAM HARBOR   1200            60                N/A
CALUMET HARBOR   1148            58  250/  3/  5 1019.5S
BURNS HARBOR     1140            60  250/ 12/ 15 1020.0S
MICHIGAN CITY    1140            60  240/ 16/ 17   N/A
$$

ABBREVIATIONS USED IN REMARKS
   TC - TEMPERATURE IN CELSIUS
  WCI - WIND CHILL INDEX
   HX - HEAT INDEX
  VSB - VISIBILITY
$$




USA.gov is the U.S. government's official web portal to all federal, state and local government web resources and services.